Location: Unspecified
(0.0000°N, 0.0000°E)
Time: 15:20:23
(UTC+00:00)

deb Delta 126 - Pass Details

Date: 18 February 2026
Orbit: 1458 x 1580 km, 101.9° (Epoch: 6 March)

Event Time Altitude Azimuth Distance (km) Brightness Sun altitude
Rises 03:47:05 0° 11° (N) 4,747 ? -35.8°
Reaches altitude 10° 03:49:57 10° 9° (N) 3,769 ? -35.1°
Enters shadow 03:56:19 51° 350° (N) 1,912 ? -33.6°
Exits shadow 03:59:39 67° 252° (WSW) 1,684 ? -32.8°
Drops below altitude 10° 04:07:40 10° 203° (SSW) 3,759 ? -30.8°
Sets 04:10:32 0° 201° (SSW) 4,734 ? -30.2°
